K5RNB Weather Reports


time (UTC)temp
C
wind
direction
speed
KPH
gust
KPH
rain 1hr
cm
rain 24hr
cm
rain mn
cm
humidity
%
barometer
mb
20260906221958 37 112 9.7 24.1 0.00 0.00 0.00 39 1008.8
20260906221459 37 129 11.3 24.1 0.00 0.00 0.00 40 1008.8
20260906220959 37 188 8.0 19.3 0.00 0.00 0.00 40 1008.8
20260906220458 37 103 12.9 22.5 0.00 0.00 0.00 41 1008.9
20260906215958 37 175 11.3 29.0 0.00 0.00 0.00 41 1008.9
20260906215459 37 116 17.7 32.2 0.00 0.00 0.00 42 1008.8
20260906214458 37 121 3.2 24.1 0.00 0.00 0.00 41 1008.9
20260906213959 37 159 9.7 24.1 0.00 0.00 0.00 40 1009.1
20260906213459 37 116 9.7 22.5 0.00 0.00 0.00 40 1009.1
20260906212959 37 111 9.7 24.1 0.00 0.00 0.00 41 1009.1
20260906211959 37 148 16.1 27.4 0.00 0.00 0.00 42 1009.2
20260906211501 37 170 9.7 32.2 0.00 0.00 0.00 42 1009.4
20260906210459 37 120 14.5 20.9 0.00 0.00 0.00 42 1009.4
20260906205959 37 131 14.5 32.2 0.00 0.00 0.00 41 1009.6
20260906205459 37 90 8.0 32.2 0.00 0.00 0.00 42 1009.7
20260906204959 37 122 12.9 27.4 0.00 0.00 0.00 41 1009.7
20260906204459 37 110 11.3 32.2 0.00 0.00 0.00 42 1009.8
20260906203959 37 113 12.9 32.2 0.00 0.00 0.00 41 1009.9
20260906203459 37 154 11.3 25.7 0.00 0.00 0.00 43 1009.9
20260906202959 37 166 9.7 25.7 0.00 0.00 0.00 42 1010.0
20260906202459 37 134 14.5 29.0 0.00 0.00 0.00 41 1010.0
20260906201959 37 112 17.7 29.0 0.00 0.00 0.00 41 1010.2
20260906201459 37 141 9.7 24.1 0.00 0.00 0.00 43 1010.1
20260906200959 37 102 11.3 24.1 0.00 0.00 0.00 43 1010.2
20260906200459 37 181 14.5 22.5 0.00 0.00 0.00 43 1010.3
20260906200003 36 124 11.3 22.5 0.00 0.00 0.00 45 1010.3
20260906030406 31 166 9.7 19.3 0.00 0.00 0.00 62 1010.6
20260906025906 31 163 9.7 14.5 0.00 0.00 0.00 60 1010.5
20260906025406 31 154 9.7 16.1 0.00 0.00 0.00 59 1010.5
20260906024906 31 144 8.0 20.9 0.00 0.00 0.00 59 1010.4
20260906024406 31 147 11.3 20.9 0.00 0.00 0.00 59 1010.4
20260906023906 31 149 11.3 19.3 0.00 0.00 0.00 59 1010.2
20260906023407 31 147 11.3 19.3 0.00 0.00 0.00 58 1010.2
20260906022906 31 152 9.7 16.1 0.00 0.00 0.00 58 1010.0
20260906022406 31 152 8.0 11.3 0.00 0.00 0.00 56 1009.9
20260906021906 31 147 8.0 11.3 0.00 0.00 0.00 55 1009.8
20260906021406 31 133 8.0 11.3 0.00 0.00 0.00 54 1009.7
20260906020906 31 139 4.8 9.7 0.00 0.00 0.00 54 1009.6
20260906020407 32 151 3.2 4.8 0.00 0.00 0.00 53 1009.6
20260906015906 32 145 0.0 1.6 0.00 0.00 0.00 53 1009.5
20260906015406 32 145 0.0 1.6 0.00 0.00 0.00 53 1009.5
20260906014907 32 145 0.0 1.6 0.00 0.00 0.00 54 1009.4
20260906014406 32 145 0.0 1.6 0.00 0.00 0.00 54 1009.3
20260906013907 33 145 0.0 1.6 0.00 0.00 0.00 52 1009.3
20260906013406 33 145 0.0 1.6 0.00 0.00 0.00 51 1009.1
20260906012906 33 145 0.0 1.6 0.00 0.00 0.00 51 1009.1
20260906012406 33 145 0.0 3.2 0.00 0.00 0.00 51 1009.0
20260906011906 33 145 0.0 3.2 0.00 0.00 0.00 49 1009.0
20260906011406 33 145 1.6 4.8 0.00 0.00 0.00 48 1009.0
20260906010907 33 97 0.0 4.8 0.00 0.00 0.00 48 1008.9
20260906010406 34 139 3.2 4.8 0.00 0.00 0.00 48 1008.8
20260906005906 34 124 3.2 4.8 0.00 0.00 0.00 47 1008.8
20260906005409 35 138 3.2 4.8 0.00 0.00 0.00 46 1008.8
20260906004907 35 137 1.6 9.7 0.00 0.00 0.00 45 1008.8
20260906004406 35 113 4.8 9.7 0.00 0.00 0.00 44 1008.8
20260906003906 35 115 4.8 9.7 0.00 0.00 0.00 44 1008.8
20260906003406 35 140 4.8 11.3 0.00 0.00 0.00 44 1008.8
20260906002907 35 119 4.8 11.3 0.00 0.00 0.00 44 1008.7
20260906002407 35 147 6.4 11.3 0.00 0.00 0.00 44 1008.7
20260906001406 35 172 4.8 11.3 0.00 0.00 0.00 43 1008.7
20260906000907 36 163 8.0 14.5 0.00 0.00 0.00 43 1008.7
20260906000407 36 153 9.7 14.5 0.00 0.00 0.00 43 1008.7
20260905235407 36 185 6.4 9.7 0.00 0.00 0.00 42 1008.6
20260905234406 36 166 4.8 14.5 0.00 0.00 0.00 43 1008.5
20260905233908 36 145 4.8 14.5 0.00 0.00 0.00 43 1008.5
20260905233407 36 182 9.7 14.5 0.00 0.00 0.00 43 1008.5
20260905232907 36 175 4.8 22.5 0.00 0.00 0.00 43 1008.5
20260905232407 36 177 12.9 22.5 0.00 0.00 0.00 42 1008.6
20260905231907 36 161 11.3 20.9 0.00 0.00 0.00 43 1008.5
20260905231407 36 196 14.5 20.9 0.00 0.00 0.00 43 1008.6
20260905230407 36 182 14.5 22.5 0.00 0.00 0.00 42 1008.6
20260905225907 36 147 3.2 14.5 0.00 0.00 0.00 42 1008.6
20260905225407 36 164 9.7 16.1 0.00 0.00 0.00 42 1008.5
20260905224907 36 174 9.7 19.3 0.00 0.00 0.00 43 1008.6
20260905224407 36 186 14.5 19.3 0.00 0.00 0.00 43 1008.5
20260905223907 36 217 12.9 19.3 0.00 0.00 0.00 43 1008.5
20260905223407 36 197 11.3 24.1 0.00 0.00 0.00 43 1008.5